Our most recent big winners
€27,890.25hepiep04/06/2019
€13,990.00mamanmonange29/05/2019
€10,550.00MclarenHonda21/05/2019
€12,944.59NatGlo03/05/2019
€27,795.00Jero7721/03/2019
€11,496.20timmy11124/02/2019
€12,595.00Alixexpat18/02/2019
€10,043.00virelee30/01/2019
€18,220.00hepiep29/05/2019
€10,402.00hepiep28/05/2019
€22,338.00hepiep28/05/2019
€83,838.50hepiep26/05/2019
€13,455.00timmy11125/05/2019
€10,890.00MclarenHonda20/05/2019
€10,360.00Stijn3420/05/2019
€23,000.00MclarenHonda18/05/2019
€64,775.00Joris199217/05/2019
€21,685.00Alixexpat07/05/2019
€19,361.50Lucadidi05/04/2019
€14,600.00Lombardino28/03/2019
€21,100.00Liedts01227/02/2019
€13,825.00abylee22/02/2019
€15,150.00Liedts01219/02/2019
€12,000.00timmy11109/02/2019
€27,100.00PSG201609/02/2019
€12,500.00Alainbobo06/02/2019
€10,700.00Jannick1905/02/2019
€11,950.00Jipenjanneke04/02/2019
€10,847.50DANCIUGRIGORE03/02/2019
€19,000.00timmy11102/02/2019
€10,700.00melpis23/01/2019
€11,882.00yarak1960patsy19/01/2019
€27,900.00PSG201614/01/2019
€12,195.00timmy11104/01/2019
€102,089.00timmy11101/01/2019
€14,500.00Anjou1228/12/2018
€13,750.06Jannick1926/12/2018
€22,000.00timmy11122/12/2018
€26,290.00timmy11111/12/2018
€10,640.00timmy11101/12/2018
€10,270.00Lombardino28/11/2018
€14,565.00Meli15819/11/2018
€10,538.00Liesbeth719/11/2018
€33,635.00tauros16/11/2018
€25,090.00tauros15/11/2018
€12,050.00tauros14/11/2018
€14,250.00tauros13/11/2018
€34,104.00tauros12/11/2018
€11,750.00nidugg10/11/2018
€19,050.00Ixenie30/10/2018
€13,000.00nidugg07/10/2018
€15,035.00virelee07/10/2018
€17,750.00mamanmonange05/10/2018
€10,130.00virelee05/10/2018
€11,615.00virelee03/10/2018
€13,147.02minimimi2127/09/2018
€10,950.00Salvatore0825/09/2018
€26,475.00nidugg24/09/2018
€10,805.00virelee24/09/2018
€19,200.00simonna32111/09/2018
€11,000.00Tessa7802/09/2018
€14,595.61nancyp18/08/2018
€10,410.00Salvatore0811/08/2018
€10,549.60Nancy6427/07/2018
More than €2,500
Blackjack Atlantic C...€2,910.00MclarenHonda17/06 02:40
Infinity Dice€2,800.00sduggal17/06 12:08
Blackjack Atlantic C...€4,000.00Joris199216/06 04:26
MegaWheels€6,545.00Stefaniehans15/06 04:49
Infinity Dice€3,830.00obischke15/06 04:07
Book of Gods€4,723.00MIKESTUFF14/06 04:07
Infinity Dice€4,350.00Detry0113/06 02:36
Spirit Sisters€3,550.00abylee13/06 01:26
Infinity Dice€2,835.00Lisatje12/06 06:32
Infinity Dice€3,850.00obischke12/06 12:01
Infinity Dice€2,700.00obischke11/06 11:27
Diamond Double Wheel€2,895.00march63711/06 05:18
Foxin' Wins Again€7,859.25hepiep11/06 05:18
Mystery Reels€3,250.00ROMANO674010/06 01:52
Infinity Dice€3,300.00Sevina10/06 08:37
MegaWheels€3,225.00Marko2109/06 04:24
Diamond Double Wheel€3,980.00Elolo0908/06 03:51
Infinity Dice€9,495.00Lisatje08/06 04:31
Blackjack Atlantic C...€4,500.00Joris199208/06 01:33
Live Roulette€6,910.60Goldenboywong07/06 04:55
Blackjack Atlantic C...€3,000.00Joris199207/06 03:07
Live Roulette€2,540.00Goldenboywong07/06 01:43
Blackjack Atlantic C...€3,050.00Joris199207/06 01:05
Blackjack Atlantic C...€3,600.00Alainbobo06/06 08:51
Blackjack Atlantic C...€4,450.00MclarenHonda05/06 12:47
Foxin' Wins Again€2,628.30hepiep05/06 11:49
Foxin' Wins€4,970.00hepiep04/06 07:14
Spirit Sisters€3,390.00AmberBenoit04/06 02:52
Pure€3,500.00sduggal04/06 01:32
Infinity Dice€3,230.00Peke80204/06 02:34
Judge Dredd€4,530.00hepiep04/06 01:26
Infinity Dice€2,500.00Stijn3403/06 02:22
More than €250
Blackjack Atlantic C...€2,000.00Joris199218/06 02:36
Royal Wheel€337.50daisy0818/06 02:05
Spirit Sisters€415.00Meli15818/06 12:59
Infinity Dice€650.00Tenawz18/06 12:53
Infinity Dice€298.00Chantaljean18/06 12:50
Blackjack Atlantic C...€1,750.00Joris199217/06 11:55
Infinity Dice€1,650.00SANDRA161717/06 10:44
Diamond Double Wheel€300.00Elolo0917/06 10:18
Blackjack Atlantic C...€1,198.50MclarenHonda17/06 09:20
Stunning 27€694.75Marius8917/06 09:14
Infinity Dice€550.00Ct2105302017/06 09:11
Royal Dice HD€688.75poussy17/06 08:50
MegaWheels€445.00Lanni517/06 08:32
Doubleplay Superbet€362.32officialmaxisam17/06 07:24
Blackjack Atlantic C...€1,950.00MclarenHonda17/06 07:19
MegaWheels€375.00Lanni517/06 06:51
Spin Your Fortune€470.00ISA66617/06 06:06
Infinity Dice€300.00Tenshura17/06 06:03
Flash Dice€559.25Meli15817/06 05:50
Gold Reels€585.00jerre0017/06 04:58
Royal Dice HD€539.75Sonialara17/06 02:17
Dice Cup€345.00mantedv17/06 02:04
Parasol Beach€480.00Tania8117/06 01:25
Royal Wheel Extra€645.00illico17/06 12:44
Blackjack Atlantic C...€1,025.00Joris199217/06 12:33
Royal Dice HD€262.50poussy17/06 11:41
Pure€252.00pieterder17/06 11:36
Parasol Beach€420.00Dieterdewulf17/06 11:22
Golden Temple€450.00Dkkns1817/06 09:54
Farmer's Delight€600.00christinegaille17/06 09:46
Always Hot Cubes€506.10Vitale0117/06 08:39
Spirit Sisters€1,195.00AmberBenoit17/06 08:37
Creepy Cash€280.00mantedv17/06 07:57
Always Hot Cubes€345.50Vitale0117/06 06:25
Starmania€450.54MARSSS17/06 01:45
Spirit Sisters€485.00Speedy23517/06 12:59
Spin Your Fortune€275.00damned46717/06 12:02
MegaWheels€500.00TUrbo8916/06 11:30
MegaWheels€255.00cornet197616/06 11:24
Midnight Blackjack€400.00Sevan11716/06 10:55
Farmer's Delight€585.00christinegaille16/06 10:07
Infinity Dice€1,270.00lanlanlou16/06 09:40
Medusa 2€486.50Tetel18716/06 09:22
MegaWheels€730.00cornet197616/06 08:10
Pure€300.00romu23916/06 07:34
MegaWheels€1,570.00cornet197616/06 06:56
Soccer Wheel€1,800.00Skedriko16/06 06:25
Soccer Wheel€285.00Skedriko16/06 06:10
Soccer Wheel€265.00Skedriko16/06 05:47
Infinity Dice€591.00Liilith16/06 05:05

Biggest wins and hot games

The online casino games goldenpalace.be offers come with a wide variety of interesting bonus features and jackpots. It is as such no big surprise that our winners list is always full of recent big wins!

To find out which online games are hot right now, simply check out the list above, then try your luck yourself with a up to €250 bonus for your first deposit (code GP250)!

DEPOSIT NOW

 

Goldenpalace.be uses cookies to enhance your experience on our gaming site. By continuing, you are consenting to this.

Yes, I agreeI want to know more first
adx